Location: Unspecified
(0.0000°N, 0.0000°E)
Time: 08:18:17
(UTC+00:00)

Vanguard 2 - Pass Details

Date: 24 October 2021
Orbit: 554 x 2936 km, 32.9° (Epoch: 06 December)

Event Time Altitude Azimuth Distance (km) Brightness Sun altitude
Rises 10:13:17 0° 295° (WNW) 2,710 10.1 64.5°
Reaches altitude 10° 10:15:23 10° 290° (WNW) 1,849 9.4 65.0°
Maximum altitude 10:19:19 52° 213° (SSW) 793 8.5 65.8°
Drops below altitude 10° 10:24:31 10° 136° (SE) 2,428 10.6 66.9°
Sets 10:27:39 0° 131° (SE) 3,678 11.3 67.6°
